RH
5 5 5 5 5 5 5 6 7 8 8 8 8 7 7 7 6 6 6 6 5 5 5 5 4 4 4 3 4 4 5 6 7 7 7 7 8 9 13 17 20 20 19 20 23 25 24 27 30 33 41 48 49 54 58 56 60 65 70 72 70 73 77 76 76 76 78 80 82 81 80 80 80 80 80 78 75 73 72 68 65 64 63 63 61 58 59 54
6 5 5 5 5 5 5 5 7 8 8 8 8 8 8 7 7 6 5 5 6 5 5 5 4 4 4 4 3 4 6 10 11 9 8 8 7 8 11 16 20 20 19 19 20 21 21 24 28 35 43 46 46 50 53 54 57 62 68 71 69 71 74 74 76 77 77 78 79 78 78 77 77 76 74 75 77 76 74 68 65 68 68 65 59 56 58 55
7 6 6 6 5 5 5 5 6 8 8 8 8 8 8 7 7 6 6 5 5 5 5 5 4 4 4 4 4 4 7 13 13 10 10 9 8 8 10 14 17 18 18 18 19 20 20 22 28 37 41 41 44 47 50 52 56 59 65 70 68 68 71 71 73 76 76 76 77 78 78 78 77 75 73 75 77 75 71 65 62 67 68 64 60 56 57 55
8 7 7 7 6 6 6 5 6 7 8 8 8 8 8 8 7 6 6 5 5 5 5 5 4 4 4 4 5 4 8 14 13 10 10 10 9 9 9 12 15 16 16 15 17 18 20 22 28 36 38 38 40 45 50 52 54 56 61 65 64 64 67 68 70 73 76 76 75 77 78 78 76 74 73 74 76 74 68 63 62 65 65 60 59 57 56 53
8 8 8 8 7 7 7 6 6 7 8 8 8 8 8 8 7 7 6 5 5 5 5 5 4 4 4 5 5 5 9 13 14 11 10 10 10 10 10 11 13 15 15 14 14 16 20 23 28 33 34 35 38 44 50 51 53 54 56 58 58 61 63 65 69 72 75 76 75 76 78 77 75 73 74 74 74 72 68 64 63 65 64 60 58 56 55 53
8 8 8 8 8 8 8 7 7 8 8 8 8 8 8 8 8 7 7 6 5 5 5 4 4 4 4 5 5 6 9 12 15 14 12 11 10 10 10 11 12 13 14 14 13 16 20 23 26 29 31 34 39 45 49 51 53 54 54 54 55 57 58 62 68 71 73 76 76 74 75 76 76 74 74 75 74 72 70 66 65 63 61 61 60 57 55 52
9 9 9 9 8 8 8 8 8 8 9 9 8 8 8 9 8 8 8 7 5 5 5 4 4 4 4 5 5 7 9 11 14 15 14 13 11 10 10 10 12 12 13 13 13 16 20 21 22 25 29 35 41 45 47 50 51 53 55 53 53 54 54 58 64 68 70 75 76 72 72 74 76 76 74 75 74 71 68 66 65 62 60 62 61 57 56 52
10 10 10 9 9 9 9 8 8 9 9 9 9 9 9 9 9 9 8 8 6 6 5 5 4 4 5 6 6 9 10 9 12 14 14 14 13 11 10 10 11 12 12 12 12 16 19 19 20 21 26 34 41 45 47 48 48 50 52 51 50 50 51 55 60 65 68 73 74 72 72 73 74 75 74 73 73 70 66 64 62 61 61 62 62 59 56 53
11 11 11 10 10 10 10 10 9 9 9 9 9 9 9 10 9 9 9 8 7 6 5 5 4 5 6 6 7 10 9 8 9 11 12 12 14 13 12 10 10 11 12 12 10 14 18 18 19 21 26 33 39 43 45 46 46 46 47 46 44 43 44 51 58 63 67 69 71 71 72 72 72 73 74 72 71 70 66 61 58 58 62 63 63 60 56 54
11 11 12 12 11 11 11 10 10 10 10 10 9 9 10 10 10 9 9 8 7 6 5 5 5 6 7 7 8 10 10 8 9 10 10 10 11 13 13 12 10 10 12 13 11 13 17 17 19 22 26 32 36 41 42 44 45 43 42 41 40 38 37 45 54 61 66 67 68 69 71 73 71 72 74 71 70 68 65 59 54 55 60 64 64 60 57 55
11 11 11 11 11 12 12 12 11 10 10 10 10 10 10 10 10 10 9 8 7 6 6 5 5 7 8 9 9 10 10 10 9 11 11 10 10 11 13 12 10 10 12 13 12 13 16 16 18 21 25 31 34 37 40 40 41 39 37 37 38 35 35 42 48 55 63 67 69 68 70 72 70 71 75 72 70 68 64 58 53 53 58 63 64 59 56 55
12 11 11 12 12 12 12 12 12 11 11 11 12 11 11 11 11 10 9 8 8 6 5 5 6 7 8 9 10 9 10 10 9 10 11 10 10 10 12 11 10 10 11 15 14 14 17 18 18 21 24 28 31 34 36 38 38 37 35 35 37 33 32 39 44 48 55 63 68 66 69 72 68 69 73 72 72 71 69 61 53 54 56 60 62 58 55 55
12 12 12 12 12 12 12 12 11 11 12 12 12 12 12 12 11 11 9 9 8 6 6 6 6 8 9 10 10 10 11 9 8 8 9 10 10 9 11 11 12 12 12 15 15 14 19 21 20 23 25 25 27 30 33 34 35 35 34 32 36 34 31 37 42 44 47 57 64 63 67 69 66 66 68 71 73 72 72 65 55 55 56 57 59 55 53 54
11 11 11 12 12 13 13 12 12 11 12 12 12 12 13 13 12 11 10 11 9 7 7 6 6 9 10 11 11 11 11 9 8 7 7 9 9 9 9 10 11 13 14 15 14 16 23 25 23 24 25 24 25 28 30 31 31 32 32 32 35 35 33 35 40 42 44 54 59 59 64 64 61 62 62 67 72 72 72 67 59 56 55 54 55 52 51 53
9 9 10 11 12 12 13 13 12 12 12 12 12 13 14 14 14 12 12 12 9 8 9 8 9 11 12 13 12 12 11 10 9 8 7 7 7 8 8 9 10 12 16 14 14 20 28 28 26 25 24 24 26 27 28 29 30 31 32 34 34 34 36 34 37 41 41 50 55 55 60 60 57 57 60 65 69 72 74 70 63 57 54 52 51 51 49 51
9 9 9 9 9 10 11 12 13 14 13 12 12 13 14 14 14 13 14 13 10 10 10 10 11 12 15 16 15 14 12 10 9 8 8 7 7 7 7 9 10 12 16 14 16 24 29 29 28 26 25 26 27 27 27 28 30 31 31 34 33 33 36 33 35 41 39 44 51 51 56 58 55 54 58 63 66 71 74 73 67 61 56 51 49 50 49 48
10 9 9 9 9 9 9 10 12 14 15 14 13 13 13 13 14 14 15 15 14 13 12 12 12 13 17 18 16 15 12 10 9 8 7 7 7 7 6 7 9 13 16 15 20 26 28 28 29 30 29 28 27 26 28 29 29 31 31 32 33 32 35 34 35 40 39 41 47 48 50 54 54 51 52 59 66 70 73 72 70 65 60 53 48 49 48 45
11 11 11 10 10 9 9 9 11 14 16 15 14 13 13 13 14 15 15 15 15 15 16 15 15 16 18 17 16 16 12 10 10 9 8 7 7 7 7 7 9 14 16 16 21 26 27 28 29 33 32 29 27 26 29 30 27 28 29 31 33 33 34 36 35 37 42 44 45 47 48 49 52 50 49 56 63 68 70 69 70 67 64 58 52 49 49 45
12 12 12 12 12 11 11 11 11 15 18 18 16 14 13 14 15 15 14 14 14 15 17 17 17 19 19 17 15 14 11 10 10 10 10 8 6 7 9 9 10 14 17 18 22 26 28 29 31 33 32 30 28 28 28 27 24 24 26 28 31 32 32 36 36 34 41 45 44 44 44 46 50 50 50 54 59 65 67 68 70 70 68 63 57 51 48 46
14 14 14 14 14 14 13 14 14 16 19 19 17 16 15 15 15 16 15 14 14 14 15 15 15 17 19 17 14 12 10 9 10 10 10 9 8 8 10 11 12 15 18 20 24 26 28 33 35 32 30 30 29 29 27 25 24 24 25 25 27 30 30 34 37 34 35 38 37 39 39 39 43 46 48 52 57 62 63 66 69 71 70 66 60 54 48 46
18 17 17 17 17 16 16 15 16 17 19 20 19 18 18 17 17 17 16 15 14 13 12 14 14 16 18 16 12 11 11 10 10 11 11 10 9 10 12 12 14 17 19 21 24 27 30 35 35 30 29 30 29 28 27 25 25 25 25 24 25 27 27 29 35 34 30 31 30 33 36 36 37 40 46 53 56 58 59 62 65 68 70 68 63 57 50 48
20 20 20 20 19 19 18 17 17 17 19 20 20 20 20 19 18 17 16 15 15 12 12 13 14 16 17 15 12 11 11 11 10 10 12 11 10 11 13 14 16 17 19 22 27 30 35 36 32 30 30 30 30 28 27 25 25 25 25 23 23 23 24 26 30 30 28 28 27 28 32 34 34 36 43 51 53 54 57 59 60 63 67 67 66 61 54 51
20 22 22 22 22 21 19 19 18 17 19 21 22 22 22 20 19 17 16 15 14 12 12 12 13 13 14 14 12 12 11 12 11 11 12 13 12 11 12 14 17 19 19 23 29 33 37 34 28 29 30 29 30 29 28 27 25 24 24 22 19 19 23 25 27 26 25 27 25 24 27 31 34 38 43 48 51 53 56 58 59 60 63 65 65 62 57 52
21 23 23 23 23 22 20 20 18 18 20 21 22 23 23 20 19 18 16 15 15 13 12 12 13 13 13 13 12 11 11 12 12 12 13 14 13 13 13 15 19 21 21 22 27 31 32 27 22 25 26 25 27 28 28 29 28 25 22 21 17 18 23 25 26 25 23 24 23 23 29 32 33 39 45 49 53 54 56 59 59 58 61 64 65 64 59 54
21 22 22 21 22 22 20 19 19 20 20 21 21 22 22 20 18 17 16 18 18 15 13 12 13 13 13 12 11 11 12 12 13 14 15 15 14 15 16 17 20 22 23 23 26 29 26 22 20 22 23 23 24 25 26 28 29 27 23 20 17 18 22 24 25 26 24 24 23 27 39 42 37 38 45 49 53 56 57 58 58 57 60 63 64 65 62 57
19 21 19 19 20 20 19 19 19 19 19 21 22 21 20 19 19 17 18 23 21 16 15 13 13 13 12 12 11 11 12 13 13 15 15 14 14 15 17 19 20 23 23 23 26 27 23 21 22 22 22 23 23 24 24 24 28 28 22 19 18 19 20 23 26 28 28 27 24 27 39 47 44 42 46 50 52 55 57 58 57 56 59 63 64 65 63 59
17 17 17 17 18 18 18 18 18 19 20 22 23 22 20 19 19 18 23 29 24 18 16 14 14 13 11 11 10 11 14 13 13 14 14 14 13 13 14 17 19 20 19 18 22 25 21 20 22 23 23 24 24 23 23 23 26 25 20 19 20 18 19 23 26 28 28 25 22 23 28 40 46 45 46 52 55 57 59 60 59 55 57 61 63 64 63 60
16 16 16 16 16 17 18 18 19 20 20 21 22 22 21 20 20 21 28 33 28 20 16 14 14 13 11 11 11 12 13 13 14 15 13 13 14 12 12 15 19 21 17 16 21 23 21 19 20 21 22 23 24 23 24 23 22 21 19 21 21 18 20 24 24 27 29 24 23 24 22 28 39 41 44 51 58 59 58 58 57 54 54 58 60 61 62 61
15 15 15 15 15 16 17 18 20 21 21 22 22 22 22 21 22 27 33 34 28 22 19 17 16 14 13 13 13 13 12 12 14 14 13 14 14 12 12 12 16 19 17 16 20 22 21 18 16 17 19 22 22 22 24 22 20 19 18 21 21 20 23 26 25 26 27 25 25 24 20 19 27 35 44 53 57 55 52 53 55 55 56 58 58 59 61 61
15 15 14 15 16 17 18 19 21 22 23 23 22 23 22 22 30 37 37 33 29 25 23 22 18 15 14 15 16 14 12 12 13 14 15 15 13 12 13 11 12 16 17 16 19 22 22 19 18 18 19 20 19 20 23 22 20 20 18 19 21 22 25 30 33 29 26 28 28 25 21 18 19 27 38 45 47 46 46 49 53 55 58 59 57 57 59 60
15 15 15 16 17 17 19 21 22 23 24 24 24 23 23 28 38 43 36 29 30 29 27 26 23 19 16 16 16 15 15 14 14 15 16 15 14 13 14 14 14 16 19 16 15 19 22 22 22 21 19 18 18 19 21 21 21 20 19 18 21 25 26 29 34 29 27 31 31 27 24 20 18 21 26 29 32 37 42 45 49 50 52 53 53 54 56 58
16 17 17 18 18 18 20 22 23 23 25 26 24 25 32 37 37 37 32 28 29 30 28 27 25 23 19 18 18 16 16 16 14 15 16 16 17 16 17 18 17 18 19 16 14 17 21 23 24 22 20 20 20 20 19 21 22 21 21 20 22 27 25 27 33 30 27 29 29 28 26 22 22 20 20 22 25 31 37 41 44 46 47 49 50 51 52 55
19 20 21 21 19 20 22 24 23 24 26 27 26 31 41 43 36 33 31 28 27 27 27 27 26 24 22 20 19 18 17 16 15 16 16 16 19 19 19 19 18 18 20 18 16 17 21 24 24 22 21 21 21 21 21 21 22 22 23 23 25 27 26 30 35 30 24 26 28 29 27 24 25 20 19 22 24 27 32 36 40 43 47 49 49 48 49 53
20 22 23 22 21 22 24 24 23 26 29 29 32 36 39 39 36 35 32 28 27 28 28 27 25 23 21 20 20 19 19 18 18 17 17 17 19 21 21 19 19 19 21 21 19 18 21 24 24 22 21 21 21 21 21 22 22 22 24 24 25 28 28 30 32 26 22 24 27 29 28 27 25 22 22 24 23 25 29 33 37 41 45 49 51 52 52 55
22 23 23 22 22 23 24 23 24 31 32 31 35 38 37 37 36 35 33 30 29 29 29 28 24 23 22 22 21 20 19 19 19 19 18 18 19 21 21 20 19 20 21 22 21 20 21 22 22 22 21 20 20 20 20 22 24 25 25 24 24 25 26 26 27 26 23 22 25 28 29 30 27 26 29 26 23 25 29 33 37 39 42 46 50 53 53 55
24 24 23 23 24 25 26 27 30 34 35 35 41 42 38 36 35 33 33 32 29 29 30 29 27 26 26 23 22 20 18 18 18 19 20 20 21 22 22 21 21 20 21 22 21 20 22 22 20 21 21 21 20 20 21 23 26 28 26 25 24 22 23 24 26 28 25 22 26 27 27 30 29 29 34 32 27 26 28 35 39 37 38 42 45 48 49 52
26 26 26 26 28 30 31 31 32 33 34 38 47 46 40 36 33 32 33 31 29 28 29 31 30 29 28 24 22 21 19 19 19 21 22 23 22 22 23 23 22 22 22 21 21 20 21 22 21 20 22 22 19 19 23 23 25 29 28 25 24 23 24 25 25 28 29 27 29 26 25 35 39 36 39 40 35 29 27 32 36 36 36 36 37 41 44 48
28 30 30 29 31 33 34 34 33 33 35 42 48 45 39 35 33 32 31 31 30 28 29 32 32 31 29 27 25 22 20 20 20 22 24 23 23 23 22 22 22 22 22 20 21 21 20 21 22 21 22 23 21 20 24 25 25 28 29 27 27 27 27 27 25 26 28 30 30 24 27 43 50 47 47 52 49 38 31 31 30 33 36 34 32 34 38 43
30 34 35 35 35 35 35 37 38 39 42 47 50 46 39 36 36 36 34 32 32 31 31 33 34 33 31 29 26 23 22 22 22 24 25 25 25 24 22 21 21 20 20 20 21 22 21 19 21 23 23 26 27 26 29 30 26 27 31 31 31 30 29 28 27 27 27 32 34 28 31 45 48 43 47 57 59 49 38 34 31 31 34 33 31 30 31 33
31 37 40 40 40 38 38 41 43 46 49 50 49 44 39 37 38 39 37 36 35 34 34 36 37 37 34 30 28 25 24 24 24 24 26 26 26 26 24 23 21 20 20 20 20 22 23 21 21 25 25 29 35 36 35 34 31 29 32 37 36 33 30 31 32 30 28 33 38 35 38 46 42 34 41 55 61 56 44 37 35 35 34 30 28 29 27 27
33 40 41 40 42 40 39 43 46 50 52 51 47 43 41 39 38 39 39 38 38 37 37 39 39 39 36 33 31 29 27 27 26 26 28 28 27 27 25 24 24 23 23 24 22 22 23 23 24 28 28 29 37 42 39 38 37 33 34 39 40 36 33 36 39 35 31 33 37 36 40 47 42 33 41 53 58 58 53 43 38 39 37 32 27 26 27 27
36 41 39 39 42 41 39 43 46 47 48 48 45 44 43 41 39 40 40 39 38 39 41 41 41 40 38 36 34 33 30 31 30 28 29 29 29 29 27 26 26 26 26 27 25 24 25 25 24 28 30 30 35 41 41 41 41 38 35 37 40 40 37 38 40 37 35 35 35 36 42 48 44 34 40 51 55 57 58 51 43 41 40 38 34 31 32 31
40 41 38 39 40 41 41 43 44 45 44 43 42 43 43 42 41 41 40 39 37 37 41 42 42 42 42 39 37 36 34 35 34 31 31 32 32 31 30 29 29 28 28 28 27 25 27 27 23 25 32 33 34 39 41 41 41 41 40 38 40 43 42 40 40 40 42 41 36 39 47 48 40 32 37 49 53 56 58 56 50 44 42 43 42 40 38 34
43 42 40 40 40 40 42 43 42 43 41 39 40 41 41 41 42 42 41 39 36 36 38 41 42 42 42 39 37 37 36 37 38 36 36 35 34 32 31 30 29 29 28 28 27 25 25 29 27 27 33 35 36 39 41 40 40 41 40 39 40 43 44 43 43 46 50 46 38 40 48 46 37 32 39 50 53 55 57 58 55 48 45 45 45 45 43 37
42 44 42 41 40 40 41 41 42 43 42 39 38 39 39 40 41 43 42 40 38 37 37 39 40 41 40 38 37 37 37 38 39 40 39 38 36 33 32 32 32 31 29 27 26 25 25 30 30 30 34 37 38 41 41 41 42 40 38 38 40 43 46 47 46 47 51 48 40 39 44 41 33 35 45 53 55 56 57 58 58 53 49 45 40 40 41 37
39 46 48 46 43 40 39 38 39 42 43 42 38 37 38 40 40 40 39 40 40 39 37 38 39 39 40 39 38 39 39 38 39 41 41 40 39 36 34 34 34 32 30 27 25 27 29 30 31 34 35 36 39 41 40 40 42 42 41 39 37 40 44 47 49 48 46 46 44 43 43 38 32 37 50 55 55 57 57 57 58 58 56 52 44 39 37 35
35 43 48 49 46 42 40 37 36 38 41 41 39 37 37 39 38 37 35 36 37 37 37 38 38 38 39 39 39 41 42 41 41 42 42 41 40 38 35 34 33 31 30 26 25 29 31 29 30 34 33 34 35 36 35 35 36 37 39 37 38 39 41 45 49 49 45 45 47 48 45 39 32 38 52 59 57 58 58 58 60 61 61 60 57 50 43 38
32 37 41 45 45 44 44 41 37 37 39 41 40 38 36 36 35 36 35 34 34 34 36 38 37 37 38 37 37 41 42 42 42 41 42 41 41 38 36 34 32 30 29 27 26 29 31 28 28 29 29 29 29 30 31 32 32 33 34 34 36 40 41 44 48 49 48 46 46 47 45 40 38 45 57 64 65 62 60 59 60 60 61 62 61 58 53 48
31 35 38 41 43 46 47 44 40 38 39 44 45 40 37 37 36 35 35 35 35 34 35 37 37 38 38 36 37 39 40 41 42 41 41 41 40 39 37 36 34 30 29 29 27 28 30 32 30 28 27 27 26 27 28 30 32 34 34 33 35 38 43 46 49 51 51 48 47 50 50 48 51 58 62 66 70 67 62 61 60 59 60 62 62 61 58 53
32 35 38 40 42 47 49 46 43 42 42 44 46 42 39 40 37 35 34 34 35 34 34 36 37 37 37 37 37 37 36 36 37 37 38 39 40 39 37 37 35 33 31 30 28 27 28 31 33 30 27 27 26 24 24 27 31 34 35 36 35 36 41 46 48 50 54 56 54 53 56 59 61 60 59 63 70 69 63 61 62 61 62 65 64 61 60 57
32 35 38 41 42 45 49 47 45 47 47 46 46 44 41 40 38 36 35 33 33 34 33 34 35 36 37 38 38 37 35 33 33 34 34 36 37 36 36 36 35 34 35 32 31 31 31 33 35 33 29 27 25 23 23 23 24 28 34 37 37 39 40 42 46 53 60 66 64 59 64 72 68 58 55 60 65 66 64 65 67 67 68 72 69 63 62 61
32 33 35 40 41 43 47 48 47 47 46 43 43 42 42 41 37 37 38 35 33 33 32 31 33 35 36 37 36 34 33 32 32 32 32 34 34 33 34 35 34 33 36 34 32 35 36 34 34 34 32 31 29 27 25 23 22 28 33 32 34 40 42 42 49 58 62 65 68 69 74 80 76 65 58 58 58 61 66 72 75 72 71 73 71 65 64 65